Location: Honey Creek State Natural Area
(29.8555°N, 98.4942°W)
Time: 20:02:38
(UTC-06:00)

Hubble Space Telescope - Visible Passes

Search period start: 23 January 2018 00:00
Search period end: 02 February 2018 00:00
Orbit: 537 x 541 km, 28.5° (Epoch: 23 January)

Date Brightness Start Highest point End Pass type
(mag) Time Alt. Az. Time Alt. Az. Time Alt. Az.
23 Jan 1.3 19:29:35 10° WSW 19:33:32 45° SSE 19:34:20 39° SE visible
24 Jan 1.2 19:19:14 10° WSW 19:23:15 52° SSE 19:24:44 33° ESE visible
25 Jan 1.0 19:08:55 10° WSW 19:12:58 59° S 19:15:07 26° E visible
25 Jan 3.9 20:50:01 10° W 20:50:29 13° W 20:50:29 13° W visible
26 Jan 0.9 18:58:38 10° WSW 19:02:43 65° S 19:05:31 19° E visible
26 Jan 3.5 20:39:46 10° W 20:40:52 18° W 20:40:52 18° W visible
27 Jan 0.9 18:48:22 10° WSW 18:52:27 70° S 18:55:55 14° E visible
27 Jan 3.0 20:29:32 10° W 20:31:17 24° W 20:31:17 24° W visible
28 Jan 0.9 18:38:06 10° W 18:42:13 73° S 18:46:20 10° E visible
28 Jan 2.4 20:19:18 10° W 20:21:43 32° WSW 20:21:43 32° WSW visible
29 Jan 0.9 18:27:51 10° W 18:31:58 74° S 18:36:05 10° E visible
29 Jan 1.9 20:09:05 10° W 20:12:12 41° SW 20:12:12 41° SW visible
30 Jan 1.6 19:58:53 10° W 20:02:45 42° SSW 20:02:45 42° SSW visible
31 Jan 1.9 19:48:42 10° W 19:52:30 36° SSW 19:53:22 32° S visible
01 Feb 2.3 19:38:34 10° W 19:42:11 30° SSW 19:44:05 20° SSE visible
